Crosby, ND

5:16 AM CDT on June 24, 2017 (GMT -0500)
Crosby

Weather History for KD50 - January, 2014

Change the Weather History Date:

Sunday, January 12, 2014

  Actual Average (KISN) Record (KISN)
Temperature  
Mean Temperature 26 °F -  
Max Temperature 39 °F 17 °F 47 °F (1894)
Min Temperature 12 °F -4 °F -42 °F (1916)
Degree Days  
Heating Degree Days 38    
Moisture  
Dew Point 24 °F    
Average Humidity 85    
Maximum Humidity 100    
Minimum Humidity 70    
Precipitation  
Precipitation 0.00 in - - ()
Sea Level Pressure  
Sea Level Pressure 29.36 in    
Wind  
Wind Speed 19 mph (West)    
Max Wind Speed 29 mph    
Max Gust Speed 36 mph    
Visibility 10 miles    
Events      
Averages and records for this station are not official NWS values.
T = Trace of Precipitation, MM = Missing Value Source: NWS Daily Summary

Daily Weather History Graph

Daily Weather History Graph

Search for Another Location

Airport or City:

Trip Planner

Search our weather history database for the weather conditions in past years. The results will help you decide how hot, cold, wet, or windy it might be!

Date:

Astronomy

Jan. 12, 2014 Rise Set
Actual Time 8:43 AM CST 5:20 PM CST
Civil Twilight 8:07 AM CST 5:56 PM CST
Nautical Twilight 7:27 AM CST 6:35 PM CST
Astronomical Twilight 6:49 AM CST 7:13 PM CST
Moon 2:51 PM CST (1/12) 5:41 AM CST (1/12)
Length of Visible Light 9h 48m
Length of Day
8h 36m
Waxing Gibbous, 90% of the Moon is Illuminated
Jan 12
Waxing Gibbous
Jan 15
Full
Jan 23
Last Quarter
Jan 30
New
Feb 6
First Quarter

Hourly Weather History & Observations

Time (CST) Temp. Windchill Dew Point Humidity Pressure Visibility Wind Dir Wind Speed Gust Speed Precip Events Conditions
12:15 AM 39.2 °F 28.7 °F 32.0 °F 75% 29.11 in 10.0 mi West 23.0 mph 29.9 mph N/A   Unknown
12:35 AM 39.2 °F 28.3 °F 32.0 °F 75% 29.12 in 10.0 mi WSW 25.3 mph 29.9 mph N/A   Unknown
12:55 AM 39.2 °F 28.7 °F 30.2 °F 70% 29.10 in 10.0 mi West 23.0 mph - N/A   Unknown
1:15 AM 37.4 °F 26.6 °F 30.2 °F 75% 29.10 in 10.0 mi WSW 21.9 mph 29.9 mph N/A   Unknown
1:35 AM 37.4 °F 26.1 °F 30.2 °F 75% 29.10 in 10.0 mi West 24.2 mph 31.1 mph N/A   Unknown
1:55 AM 37.4 °F 25.9 °F 30.2 °F 75% 29.11 in 10.0 mi WSW 25.3 mph 31.1 mph N/A   Unknown
2:15 AM 37.4 °F 25.9 °F 30.2 °F 75% 29.11 in 10.0 mi West 25.3 mph 34.5 mph N/A   Unknown
2:35 AM 35.6 °F 23.2 °F 30.2 °F 81% 29.12 in 10.0 mi West 26.5 mph 35.7 mph N/A   Unknown
2:55 AM 35.6 °F 23.4 °F 30.2 °F 81% 29.13 in 10.0 mi West 25.3 mph 31.1 mph N/A   Unknown
3:15 AM 35.6 °F 23.4 °F 28.4 °F 75% 29.14 in 10.0 mi West 25.3 mph 29.9 mph N/A   Unknown
3:35 AM 35.6 °F 24.2 °F 28.4 °F 75% 29.14 in 10.0 mi West 21.9 mph 29.9 mph N/A   Unknown
3:55 AM 33.8 °F 24.8 °F 28.4 °F 81% 29.15 in 10.0 mi West 12.7 mph - N/A   Unknown
4:15 AM 32.0 °F 23.0 °F 28.4 °F 87% 29.16 in 10.0 mi SW 11.5 mph - N/A   Unknown
4:35 AM 32.0 °F 22.1 °F 26.6 °F 80% 29.17 in 10.0 mi South 13.8 mph - N/A   Unknown
4:55 AM 30.2 °F 19.3 °F 26.6 °F 86% 29.17 in 10.0 mi SSW 15.0 mph - N/A   Unknown
5:15 AM 30.2 °F 20.2 °F 26.6 °F 86% 29.18 in 10.0 mi SSW 12.7 mph - N/A   Unknown
5:35 AM 30.2 °F 20.2 °F 26.6 °F 86% 29.18 in 10.0 mi WSW 12.7 mph - N/A   Unknown
5:55 AM 32.0 °F 22.5 °F 26.6 °F 80% 29.19 in 10.0 mi SW 12.7 mph - N/A   Unknown
6:15 AM 32.0 °F 22.1 °F 26.6 °F 80% 29.19 in 10.0 mi WSW 13.8 mph - N/A   Unknown
6:35 AM 32.0 °F 22.1 °F 26.6 °F 80% 29.19 in 10.0 mi WSW 13.8 mph - N/A   Unknown
6:55 AM 32.0 °F 21.6 °F 26.6 °F 80% 29.19 in 10.0 mi SW 15.0 mph - N/A   Unknown
7:15 AM 32.0 °F 21.2 °F 26.6 °F 80% 29.19 in 10.0 mi WSW 16.1 mph - N/A   Unknown
7:35 AM 32.0 °F 22.5 °F 26.6 °F 80% 29.19 in 10.0 mi SW 12.7 mph - N/A   Unknown
7:55 AM 28.4 °F 17.5 °F 26.6 °F 93% 29.20 in 10.0 mi SSW 13.8 mph - N/A   Unknown
8:15 AM 32.0 °F 21.6 °F 26.6 °F 80% 29.20 in 10.0 mi SW 15.0 mph - N/A   Unknown
8:35 AM 30.2 °F 20.2 °F 26.6 °F 86% 29.21 in 10.0 mi SW 12.7 mph - N/A   Unknown
8:55 AM 30.2 °F 18.9 °F 26.6 °F 86% 29.21 in 10.0 mi SW 16.1 mph - N/A   Unknown
9:15 AM 28.4 °F 18.0 °F 24.8 °F 86% 29.22 in 10.0 mi South 12.7 mph - N/A   Unknown
9:35 AM 26.6 °F 13.4 °F 24.8 °F 93% 29.23 in 10.0 mi SSW 18.4 mph - N/A   Unknown
9:55 AM 28.4 °F 16.2 °F 26.6 °F 93% 29.25 in 10.0 mi SW 17.3 mph - N/A   Unknown
10:15 AM 32.0 °F 21.6 °F 26.6 °F 80% 29.25 in 10.0 mi SW 15.0 mph - N/A   Unknown
10:35 AM 32.0 °F 21.2 °F 26.6 °F 80% 29.26 in 10.0 mi WSW 16.1 mph - N/A   Unknown
10:55 AM 32.0 °F 21.6 °F 28.4 °F 87% 29.26 in 10.0 mi SW 15.0 mph - N/A   Unknown
11:15 AM 32.0 °F 23.0 °F 28.4 °F 87% 29.27 in 10.0 mi WSW 11.5 mph - N/A   Unknown
11:35 AM 32.0 °F 23.0 °F 28.4 °F 87% 29.28 in 10.0 mi West 11.5 mph 19.6 mph N/A   Unknown
11:55 AM 32.0 °F 23.0 °F 28.4 °F 87% 29.29 in 10.0 mi NW 11.5 mph - N/A   Unknown
12:15 PM 32.0 °F 22.1 °F 28.4 °F 87% 29.30 in 10.0 mi NNW 13.8 mph 18.4 mph N/A   Unknown
12:35 PM 28.4 °F 18.0 °F 26.6 °F 93% 29.31 in 10.0 mi NW 12.7 mph - N/A   Unknown
12:55 PM 28.4 °F 16.2 °F 26.6 °F 93% 29.32 in 10.0 mi NW 17.3 mph - N/A   Unknown
1:15 PM 28.4 °F 17.0 °F 26.6 °F 93% 29.34 in 10.0 mi NW 15.0 mph 21.9 mph N/A   Unknown
1:35 PM 26.6 °F 14.7 °F 26.6 °F 100% 29.34 in 10.0 mi NW 15.0 mph - N/A   Unknown
1:55 PM 26.6 °F 12.7 °F 26.6 °F 100% 29.37 in 10.0 mi NNW 20.7 mph 27.6 mph N/A   Unknown
2:15 PM 26.6 °F 12.0 °F 24.8 °F 93% 29.39 in 10.0 mi NW 23.0 mph 31.1 mph N/A   Unknown
2:35 PM 26.6 °F 13.1 °F 24.8 °F 93% 29.40 in 10.0 mi NW 19.6 mph 29.9 mph N/A   Unknown
2:55 PM 26.6 °F 11.4 °F 24.8 °F 93% 29.41 in 10.0 mi NW 25.3 mph 34.5 mph N/A   Unknown
3:15 PM 26.6 °F 10.6 °F 24.8 °F 93% 29.44 in 10.0 mi NW 28.8 mph 33.4 mph N/A   Unknown
3:35 PM 26.6 °F 12.7 °F 23.0 °F 86% 29.45 in 10.0 mi NW 20.7 mph 28.8 mph N/A   Unknown
3:55 PM 26.6 °F 13.4 °F 24.8 °F 93% 29.46 in 10.0 mi NW 18.4 mph - N/A   Unknown
4:15 PM 26.6 °F 14.3 °F 24.8 °F 93% 29.48 in 10.0 mi WNW 16.1 mph - N/A   Unknown
4:35 PM 28.4 °F 15.8 °F 24.8 °F 86% 29.50 in 10.0 mi WNW 18.4 mph 24.2 mph N/A   Unknown
4:55 PM 28.4 °F 14.1 °F 24.8 °F 86% 29.51 in 10.0 mi WNW 24.2 mph 31.1 mph N/A   Unknown
5:15 PM 28.4 °F 13.0 °F 23.0 °F 80% 29.53 in 10.0 mi WNW 28.8 mph 35.7 mph N/A   Unknown
5:35 PM 26.6 °F 13.1 °F 23.0 °F 86% 29.55 in 10.0 mi WNW 19.6 mph 25.3 mph N/A   Unknown
5:55 PM 24.8 °F 11.5 °F 19.4 °F 80% 29.57 in 10.0 mi NW 17.3 mph 26.5 mph N/A   Unknown
6:15 PM 24.8 °F 12.9 °F 19.4 °F 80% 29.59 in 10.0 mi NW 13.8 mph 19.6 mph N/A   Unknown
6:35 PM 23.0 °F 11.7 °F 19.4 °F 86% 29.59 in 10.0 mi NW 11.5 mph - N/A   Unknown
6:55 PM 23.0 °F 8.3 °F 19.4 °F 86% 29.59 in 10.0 mi WNW 19.6 mph 24.2 mph N/A   Unknown
7:15 PM 23.0 °F 8.3 °F 19.4 °F 86% 29.60 in 10.0 mi WNW 19.6 mph - N/A   Unknown
7:35 PM 23.0 °F 7.6 °F 19.4 °F 86% 29.61 in 10.0 mi WNW 21.9 mph - N/A   Unknown
7:55 PM 23.0 °F 8.0 °F 17.6 °F 80% 29.61 in 10.0 mi WNW 20.7 mph 31.1 mph N/A   Unknown
8:15 PM 19.4 °F 6.0 °F 17.6 °F 93% 29.62 in 10.0 mi WNW 13.8 mph - N/A   Unknown
8:35 PM 19.4 °F 5.0 °F 15.8 °F 86% 29.63 in 10.0 mi NW 16.1 mph - N/A   Unknown
8:55 PM 17.6 °F 5.7 °F 15.8 °F 93% 29.64 in 10.0 mi WNW 10.4 mph - N/A   Unknown
9:15 PM 15.8 °F 4.2 °F 14.0 °F 93% 29.65 in 10.0 mi WNW 9.2 mph - N/A   Unknown
9:35 PM 15.8 °F 4.2 °F 14.0 °F 93% 29.66 in 10.0 mi West 9.2 mph - N/A   Unknown
9:55 PM 15.8 °F 0.3 °F 12.2 °F 86% 29.65 in 10.0 mi WNW 16.1 mph - N/A   Unknown
10:15 PM 15.8 °F -0.2 °F 10.4 °F 79% 29.64 in 10.0 mi WNW 17.3 mph 24.2 mph N/A   Unknown
10:35 PM 14.0 °F -1.4 °F 10.4 °F 86% 29.65 in 10.0 mi WNW 15.0 mph - N/A   Unknown
10:55 PM 14.0 °F -2.0 °F 10.4 °F 86% 29.65 in 10.0 mi WNW 16.1 mph - N/A   Unknown
11:15 PM 14.0 °F -0.8 °F 10.4 °F 86% 29.66 in 10.0 mi WNW 13.8 mph - N/A   Unknown
11:35 PM 14.0 °F -3.0 °F 8.6 °F 79% 29.65 in 10.0 mi WNW 18.4 mph - N/A   Unknown
11:55 PM 12.2 °F -4.3 °F 8.6 °F 85% 29.64 in 10.0 mi WNW 16.1 mph - N/A   Unknown